Wind_Speed
19 19 20 19 18 19 21 22 24 25 25 26 28 31 33 36 38 39 41 41 43 45 45 46 47 48 49 49 50 51 52 52 51 50 49 48 48 47 44 43 44 44 43
19 19 19 19 19 20 22 25 26 28 30 32 34 36 37 40 42 43 46 48 48 50 52 51 50 51 52 53 53 52 52 52 52 52 52 51 51 50 51 50 48 47 47
19 20 20 19 20 22 25 28 30 33 35 36 38 40 43 45 47 49 51 53 54 55 56 56 56 56 56 57 56 55 54 54 54 55 55 54 54 54 55 55 53 51 50
19 20 20 21 23 25 27 30 33 36 38 40 42 44 47 50 52 53 55 57 58 59 60 62 63 63 62 61 60 59 58 58 58 58 58 59 58 58 59 60 60 57 55
21 22 23 24 25 27 30 33 36 39 40 42 45 48 52 55 57 58 60 61 62 63 65 68 68 67 67 65 63 62 62 62 61 61 60 60 61 62 63 63 64 64 62
27 28 28 29 30 33 37 40 41 42 43 44 48 52 56 60 62 63 63 64 66 67 68 70 70 70 68 65 63 63 61 58 57 57 57 58 60 63 65 67 67 68 68
33 34 34 34 36 39 42 44 46 47 47 48 52 55 58 61 64 65 64 65 68 69 68 65 63 62 60 57 55 54 52 51 50 51 53 55 57 58 61 65 68 69 70
37 38 39 38 40 43 45 47 49 50 52 54 56 58 59 61 64 65 65 66 66 63 58 53 49 48 47 47 47 45 44 45 46 47 49 52 55 55 56 59 64 68 70
42 42 44 46 48 49 50 52 53 53 55 57 59 59 61 62 65 67 67 63 55 49 48 46 44 43 43 44 45 46 46 47 49 50 50 52 54 55 56 56 59 63 68
48 49 50 52 54 54 54 55 55 56 57 59 61 61 62 63 63 61 56 52 48 45 45 44 43 44 45 46 47 48 49 51 53 53 53 53 54 55 56 56 56 57 62
53 52 51 51 52 53 54 56 57 57 59 61 62 62 61 56 52 49 47 46 46 45 44 44 46 48 49 50 51 52 53 55 55 54 53 53 52 52 54 56 55 54 55
49 48 48 48 49 51 53 56 57 57 59 62 63 61 55 50 48 47 46 45 44 44 47 49 51 52 53 55 56 57 57 57 56 54 53 52 51 50 52 54 55 54 53
42 44 48 50 52 53 55 57 57 58 60 62 60 56 53 50 49 48 47 47 48 49 51 55 57 58 59 60 61 61 60 58 57 54 53 51 51 50 49 51 54 55 55
44 47 50 52 53 54 55 56 57 59 60 58 55 53 52 51 51 52 53 54 55 56 58 59 61 62 63 64 64 62 59 57 56 54 52 51 50 49 49 49 52 53 54
47 49 51 53 53 53 55 56 58 59 58 55 54 54 53 53 54 56 59 60 62 62 62 61 61 61 62 61 61 59 56 56 55 54 52 51 50 49 48 48 49 50 51
48 52 53 53 53 54 56 57 58 56 56 55 55 55 56 56 57 59 61 63 64 65 65 59 57 56 56 56 55 54 53 53 53 52 51 50 49 49 47 46 46 46 47
50 51 51 53 54 56 57 56 55 55 56 55 56 56 57 58 59 60 62 63 62 62 61 55 50 47 48 49 48 48 48 47 47 45 43 42 44 46 45 44 43 42 42
49 49 51 54 56 56 56 55 54 55 55 55 55 56 58 59 60 60 60 59 58 56 53 47 44 41 41 42 43 43 43 42 40 37 35 36 40 42 42 42 42 41 41
47 49 51 52 53 53 53 53 53 53 54 55 56 57 58 58 56 54 52 51 49 47 43 40 37 36 37 38 39 39 38 36 33 31 30 32 34 36 38 40 40 40 40
47 48 48 49 50 50 51 51 52 53 54 55 56 56 55 52 47 44 43 41 38 35 33 31 29 30 31 34 35 33 29 26 25 24 24 25 27 30 33 36 37 38 38
45 45 47 48 49 50 51 51 52 53 55 55 53 51 47 44 43 41 38 34 29 25 23 22 23 24 27 28 27 22 19 18 17 16 17 19 22 25 28 30 32 34 36
45 46 48 50 51 51 51 51 52 54 54 51 47 45 43 43 42 39 33 27 22 18 17 18 19 20 21 20 16 14 12 12 11 11 13 16 19 22 24 27 29 31 33
46 47 50 51 52 50 50 52 53 51 48 44 41 40 40 38 35 30 26 22 19 17 16 16 16 16 14 12 10 8 7 7 8 9 11 13 15 19 22 24 26 28 31
48 50 51 50 50 49 50 51 49 46 42 37 35 35 34 31 26 21 19 18 16 15 14 13 11 10 8 6 5 5 5 6 7 8 9 12 15 19 22 24 25 28 32
50 50 49 48 48 48 48 46 43 39 33 32 32 32 29 26 21 16 14 13 11 10 9 7 5 5 4 3 4 5 5 7 7 7 8 12 16 21 23 23 24 25 27
48 47 46 46 46 45 43 40 36 31 29 29 29 28 27 22 16 12 8 6 5 5 5 4 4 4 3 4 5 6 6 6 5 5 8 11 16 19 20 19 18 19 22
Wind_Direction
300 300 306 305 297 294 294 294 294 293 293 293 291 290 289 288 288 288 288 287 284 283 281 279 276 274 273 273 272 271 270 269 268 267 266 267 267 263 258 255 255 257 257
298 295 296 293 291 293 296 298 298 297 296 295 293 291 290 289 288 287 286 287 286 284 283 281 278 275 273 272 271 269 267 266 267 268 267 267 266 263 260 255 252 254 256
296 295 295 293 292 295 299 301 301 300 299 298 295 294 291 288 286 285 283 283 282 281 280 279 277 275 273 272 271 271 269 266 265 265 265 265 264 262 259 257 255 253 253
304 303 302 300 299 300 302 302 300 298 296 295 292 290 287 284 282 280 279 279 278 278 277 276 275 275 274 272 271 271 271 270 267 265 264 264 263 262 261 258 257 256 254
303 300 299 297 295 296 300 302 301 297 295 293 290 288 285 282 279 277 277 277 278 278 277 276 275 275 274 272 271 271 271 270 268 266 265 264 262 262 261 260 257 256 256
297 295 293 292 292 295 299 301 301 299 295 292 290 288 286 282 280 279 278 278 278 277 276 274 275 275 273 272 269 268 267 268 269 268 266 265 263 262 261 260 259 257 255
292 288 287 288 291 294 297 300 301 300 297 294 291 288 286 283 281 279 279 280 279 278 276 275 274 274 274 270 266 264 265 266 267 267 267 266 265 264 262 259 258 256 252
293 288 284 283 286 291 295 297 298 298 297 295 293 291 288 286 284 283 281 279 279 278 275 274 273 272 271 270 267 263 261 263 266 268 268 268 266 264 262 259 256 254 251
289 287 286 285 286 290 294 296 296 296 295 295 295 294 290 287 285 284 283 280 277 274 273 273 273 272 271 270 268 266 265 266 268 270 271 270 267 263 261 260 258 253 250
290 287 288 289 288 288 292 295 296 296 296 295 294 293 291 288 286 286 284 279 275 273 272 272 273 274 274 274 272 272 272 272 272 272 272 270 268 263 259 258 258 254 249
294 292 291 291 289 288 290 293 295 295 295 295 294 293 291 290 288 286 284 279 276 274 271 271 272 274 275 275 275 275 275 274 273 273 272 270 268 264 258 254 254 252 248
299 296 293 292 292 292 292 293 295 294 294 294 294 293 291 289 288 286 283 280 276 274 274 274 274 274 274 273 274 275 276 275 274 272 271 270 267 263 258 252 250 249 245
301 298 295 294 293 293 294 295 295 294 294 294 293 291 291 290 289 286 283 280 278 277 276 277 277 276 275 274 275 275 275 274 273 270 270 269 264 261 258 252 247 245 243
302 299 297 295 294 294 294 294 294 294 293 292 291 291 290 290 288 287 285 283 281 280 279 279 280 279 278 277 276 276 274 272 270 269 270 266 260 257 256 252 246 243 241
303 299 298 297 296 296 296 295 294 293 292 292 291 290 289 288 288 287 287 286 284 283 282 282 281 280 278 276 275 273 271 269 269 270 268 262 255 253 254 252 245 240 238
300 299 300 299 298 297 296 295 294 294 295 294 293 291 290 290 290 289 288 287 286 286 285 284 281 278 275 273 271 270 269 269 270 270 265 258 251 248 251 249 242 238 236
299 299 299 298 297 296 295 295 295 295 295 294 294 293 293 293 294 293 291 290 288 287 285 284 280 275 271 270 269 269 269 270 271 268 262 254 246 245 248 245 237 233 234
298 298 298 296 295 294 294 295 296 296 297 297 298 299 299 298 296 294 292 289 287 284 284 284 280 273 269 269 270 270 270 270 267 264 258 252 247 246 244 239 233 231 233
298 297 295 295 294 294 295 297 298 300 302 304 304 303 301 299 297 295 294 292 288 284 282 280 275 270 268 270 272 273 272 268 264 261 257 253 248 242 237 233 231 231 232
298 297 296 297 297 297 299 302 304 306 308 308 307 304 301 298 296 297 298 296 292 287 281 276 270 268 269 271 273 273 270 265 260 255 249 244 239 234 231 232 233 233 232
299 301 302 302 302 304 306 309 310 310 310 309 307 304 301 297 296 297 297 294 292 288 282 276 272 271 270 271 272 270 265 260 250 242 235 232 230 230 232 235 237 236 234
304 306 306 307 309 310 312 313 313 313 312 310 307 305 302 299 297 294 290 287 287 283 280 280 278 273 270 270 266 263 257 246 234 228 230 231 233 237 241 244 244 242 238
308 310 312 312 313 314 314 314 314 313 311 310 309 308 307 305 299 292 284 280 279 277 280 282 278 272 266 259 252 245 235 228 227 230 234 239 247 253 255 253 250 247 243
313 314 314 313 314 315 315 315 314 313 311 311 312 313 314 312 306 295 282 277 279 279 279 276 272 263 251 235 215 199 205 211 216 223 235 248 258 261 262 261 259 255 251
314 313 313 314 315 315 315 314 313 312 313 315 318 319 319 318 313 301 288 280 276 273 266 258 249 227 213 200 176 174 184 194 206 222 244 256 262 264 268 268 265 258 251
313 313 314 316 316 315 314 313 314 315 317 319 320 320 319 319 316 308 298 282 248 213 196 182 178 184 174 151 150 157 164 173 195 235 260 267 268 271 270 265 257 253 251
Height
5851 5850 5848 5847 5845 5844 5843 5842 5840 5838 5837 5835 5834 5832 5830 5828 5826 5823 5820 5818 5816 5813 5811 5809 5807 5806 5805 5804 5804 5803 5804 5804 5806 5807 5809 5810 5811 5812 5813 5814 5815 5816 5816
5847 5846 5844 5842 5840 5839 5837 5835 5834 5831 5829 5827 5825 5823 5821 5818 5815 5813 5809 5805 5804 5801 5798 5797 5795 5794 5793 5793 5792 5792 5792 5792 5793 5794 5796 5798 5800 5802 5803 5804 5805 5807 5807
5842 5840 5838 5837 5835 5833 5831 5828 5826 5824 5821 5819 5816 5814 5811 5808 5804 5801 5797 5792 5789 5787 5785 5782 5780 5780 5779 5778 5778 5778 5779 5779 5780 5781 5782 5784 5786 5789 5792 5793 5794 5796 5798
5837 5835 5833 5831 5828 5826 5824 5821 5819 5816 5813 5810 5807 5803 5800 5796 5792 5788 5783 5779 5775 5772 5769 5767 5766 5764 5763 5762 5763 5763 5764 5764 5765 5767 5768 5770 5772 5774 5778 5780 5782 5785 5787
5833 5830 5827 5824 5822 5819 5817 5814 5811 5807 5804 5800 5796 5792 5788 5783 5779 5774 5769 5765 5761 5758 5755 5750 5750 5748 5746 5746 5747 5747 5748 5748 5749 5750 5753 5755 5757 5759 5761 5764 5767 5770 5774
5828 5825 5821 5818 5815 5813 5810 5806 5802 5798 5794 5790 5784 5779 5774 5769 5764 5759 5755 5750 5746 5743 5739 5734 5732 5730 5729 5730 5731 5730 5731 5732 5733 5734 5736 5739 5741 5742 5744 5747 5750 5754 5758
5822 5818 5815 5812 5808 5805 5801 5797 5792 5787 5783 5778 5772 5766 5760 5754 5749 5744 5739 5734 5729 5724 5721 5718 5716 5714 5712 5712 5713 5715 5716 5717 5718 5720 5721 5722 5724 5725 5727 5729 5732 5736 5740
5815 5811 5807 5803 5799 5795 5791 5786 5781 5775 5770 5764 5758 5752 5745 5739 5731 5726 5722 5717 5711 5707 5704 5702 5700 5700 5699 5700 5700 5702 5703 5704 5705 5705 5706 5707 5708 5709 5710 5711 5713 5717 5721
5806 5802 5798 5794 5789 5784 5780 5774 5768 5762 5755 5748 5741 5736 5729 5722 5715 5709 5703 5699 5696 5693 5692 5690 5689 5687 5687 5688 5689 5689 5690 5691 5691 5691 5691 5691 5692 5692 5694 5695 5696 5699 5703
5794 5791 5787 5782 5777 5771 5766 5760 5753 5746 5740 5732 5724 5718 5711 5704 5698 5694 5688 5684 5683 5682 5680 5678 5676 5675 5674 5674 5674 5675 5675 5675 5675 5675 5675 5675 5675 5676 5677 5679 5680 5682 5685
5781 5777 5773 5767 5762 5756 5751 5745 5738 5731 5724 5718 5709 5702 5694 5687 5681 5678 5675 5673 5671 5669 5667 5666 5664 5662 5661 5660 5660 5659 5660 5659 5659 5659 5659 5658 5659 5659 5661 5663 5665 5667 5670
5769 5764 5759 5754 5748 5742 5736 5730 5723 5716 5710 5702 5694 5687 5680 5674 5669 5665 5661 5659 5657 5657 5654 5652 5650 5648 5646 5645 5644 5644 5643 5642 5641 5642 5642 5642 5642 5643 5645 5648 5651 5653 5656
5755 5751 5746 5741 5734 5728 5721 5715 5708 5702 5695 5688 5680 5673 5667 5662 5657 5653 5649 5646 5643 5642 5640 5637 5633 5631 5629 5627 5627 5626 5626 5625 5624 5625 5625 5625 5626 5626 5629 5632 5635 5639 5642
5742 5738 5733 5727 5720 5714 5707 5701 5693 5687 5679 5672 5666 5660 5655 5649 5644 5640 5636 5632 5628 5626 5623 5619 5614 5611 5609 5608 5606 5606 5606 5606 5606 5607 5608 5608 5609 5610 5612 5615 5619 5623 5628
5730 5724 5719 5713 5706 5700 5693 5686 5679 5672 5664 5658 5652 5646 5640 5634 5630 5626 5621 5615 5610 5606 5604 5599 5594 5590 5588 5587 5586 5586 5586 5586 5587 5588 5589 5590 5591 5594 5596 5599 5604 5609 5614
5717 5711 5706 5699 5693 5686 5679 5672 5664 5657 5651 5645 5639 5632 5626 5620 5615 5610 5604 5597 5590 5585 5582 5579 5574 5570 5568 5567 5567 5567 5566 5567 5568 5569 5570 5572 5574 5578 5581 5585 5590 5595 5600
5705 5699 5693 5686 5679 5672 5665 5657 5650 5643 5637 5631 5625 5618 5611 5604 5598 5592 5585 5577 5571 5565 5561 5559 5555 5552 5550 5550 5549 5550 5550 5551 5552 5553 5554 5555 5559 5563 5568 5573 5578 5583 5589
5693 5686 5680 5673 5666 5659 5652 5644 5637 5630 5623 5616 5608 5600 5593 5586 5580 5573 5566 5559 5552 5547 5543 5541 5539 5538 5537 5536 5536 5537 5537 5538 5538 5539 5540 5542 5546 5551 5556 5561 5567 5572 5578
5680 5674 5667 5660 5654 5647 5639 5631 5623 5616 5608 5599 5591 5583 5576 5569 5563 5556 5548 5541 5535 5531 5529 5528 5527 5526 5526 5526 5526 5526 5526 5526 5527 5528 5529 5532 5535 5540 5545 5551 5556 5562 5567
5668 5662 5654 5647 5640 5633 5625 5617 5608 5600 5592 5584 5575 5567 5560 5553 5547 5541 5535 5528 5523 5520 5518 5517 5516 5516 5517 5516 5516 5516 5516 5517 5518 5520 5522 5524 5527 5532 5537 5542 5547 5552 5557
5656 5649 5642 5635 5628 5619 5611 5601 5593 5585 5577 5569 5561 5553 5546 5540 5534 5529 5523 5518 5514 5511 5509 5509 5509 5509 5508 5508 5508 5509 5509 5510 5512 5514 5517 5520 5523 5527 5530 5534 5538 5543 5548
5644 5636 5629 5622 5614 5605 5596 5587 5579 5572 5564 5555 5548 5540 5533 5527 5521 5516 5513 5510 5507 5505 5504 5503 5503 5502 5502 5502 5503 5504 5505 5507 5510 5512 5514 5517 5519 5522 5525 5528 5531 5534 5538
5631 5624 5616 5608 5599 5591 5583 5575 5567 5559 5551 5544 5537 5530 5522 5515 5509 5505 5503 5502 5501 5500 5500 5499 5498 5497 5497 5498 5500 5501 5503 5506 5508 5510 5512 5513 5515 5516 5518 5519 5522 5524 5527
5619 5611 5604 5595 5587 5580 5572 5564 5556 5548 5541 5534 5527 5520 5513 5506 5500 5497 5496 5496 5496 5496 5496 5495 5495 5495 5496 5497 5499 5501 5503 5506 5508 5509 5509 5510 5510 5510 5510 5511 5512 5514 5516
5607 5600 5592 5585 5577 5570 5562 5555 5547 5539 5532 5526 5519 5512 5506 5500 5496 5492 5491 5491 5492 5493 5493 5493 5494 5495 5496 5498 5500 5502 5504 5505 5506 5507 5507 5507 5506 5504 5504 5504 5504 5503 5504
5597 5589 5583 5576 5568 5561 5553 5546 5539 5532 5526 5520 5514 5507 5501 5496 5492 5490 5488 5488 5489 5491 5493 5494 5495 5496 5498 5500 5501 5503 5504 5505 5506 5506 5505 5504 5501 5499 5498 5497 5497 5496 5495